This is the latest recevied weather packets stored in our database for station/object OK2JF-6. If no packets are shown the sender has not sent any weather packets the latest 10 day(s).
| Time | Temp. | Humidity | Pressure | Rain* | Wind** | Luminosity | Snow |
|---|---|---|---|---|---|---|---|
| 1777745763 | 16.67° C | 39% | 1091.7 hPa | 0 mm | - | 1 W/m² | - |
| 1777745524 | 16.67° C | 38% | 1091.7 hPa | 0 mm | - | 2 W/m² | - |
| 1777745043 | 17.22° C | 37% | 1091.4 hPa | 0 mm | - | 4 W/m² | - |
| 1777744517 | 17.78° C | 36% | 1091.6 hPa | 0 mm | - | 7 W/m² | - |
| 1777743603 | 18.33° C | 36% | 1091.7 hPa | 0 mm | - | 13 W/m² | - |
| 1777743423 | 18.33° C | 36% | 1091.7 hPa | 0 mm | - | 15 W/m² | - |
| 1777743123 | 18.33° C | 36% | 1091.8 hPa | 0 mm | - | 17 W/m² | - |
| 1777742463 | 19.44° C | 36% | 1091.9 hPa | 0 mm | - | 24 W/m² | - |
| 1777741743 | 19.44° C | 36% | 1091.9 hPa | 0 mm | - | 32 W/m² | - |
| 1777741578 | 19.44° C | 36% | 1091.6 hPa | 0 mm | - | 34 W/m² | - |
| 1777740843 | 19.44° C | 35% | 1091.9 hPa | 0 mm | - | 45 W/m² | - |
| 1777740497 | 20° C | 35% | 1092 hPa | 0 mm | - | 50 W/m² | - |
| 1777740423 | 20° C | 37% | 1091.7 hPa | 0 mm | - | 51 W/m² | - |
| 1777739883 | 20° C | 33% | 1091.9 hPa | 0 mm | - | 60 W/m² | - |
| 1777739703 | 20° C | 34% | 1092.1 hPa | 0 mm | - | 62 W/m² | - |
| 1777739583 | 20° C | 33% | 1092.1 hPa | 0 mm | - | 64 W/m² | - |
| 1777739463 | 20° C | 33% | 1092.1 hPa | 0 mm | - | 66 W/m² | - |
| 1777739043 | 20.56° C | 32% | 1092.3 hPa | 0 mm | - | 73 W/m² | - |
| 1777738323 | 20.56° C | 33% | 1092.3 hPa | 0 mm | - | 86 W/m² | - |
| 1777737857 | 20.56° C | 32% | 1092.1 hPa | 0 mm | - | 96 W/m² | - |
| 1777737783 | 20.56° C | 32% | 1092.3 hPa | 0 mm | - | 97 W/m² | - |
| 1777736943 | 20.56° C | 32% | 1092.8 hPa | 0 mm | - | 114 W/m² | - |
| 1777736163 | 20.56° C | 32% | 1092.6 hPa | 0 mm | - | 133 W/m² | - |
| 1777735923 | 21.11° C | 31% | 1092.8 hPa | 0 mm | - | 138 W/m² | - |
| 1777735863 | 21.11° C | 31% | 1093 hPa | 0 mm | - | 139 W/m² | - |
* Rain latest hour (hover to see other rain measurements)
** Current wind speed in m/s (hover to see current wind gust speed)